User: anonymous   Login
Location: Oberwangen
(47.4286°N, 8.9679°E)
Time: 21:06:08
(UTC+00:00)
Language:

QPS-SAR-2 IZANAMI - Orbit

View from above orbital plane
View from above orbital plane
View from above satellite
View from above satellite

Ground track
Ground track

The orbit data is extracted from the following two-line orbital elements,

1 47485U 21006CA  22024.54477381  .00004198  00000-0  23625-3 0  9999
2 47485  97.4640  86.4498 0011308  64.6573  41.0602 15.13731905 55472
Epoch (UTC): 24 January 2022 13:04:28
Eccentricity: 0.0011308
inclination: 97.4640°
perigee height: 517 km
apogee height: 532 km
right ascension of ascending node: 86.4498°
argument of perigee: 64.6573°
revolutions per day: 15.13731905
mean anomaly at epoch: 41.0602°
orbit number at epoch: 5547

The dashed part of the orbit path shows where the satellite is in the earth's shadow,  

DLR